This demonstration page uses our WeatherBlox Daily Observations layout. Learn more.

Left ArrowRight Arrow

Hourly Observations for December 3, 2019

Temp ( °F °C ) Dew Point ( °F °C ) Humidity (%) Winds ( mph kmh ) Pressure ( in mb ) Visibility ( mi km ) Precip ( " mm )
12:56 am 00:56 Partly Cloudy 34 1 21 -6 60 60 VRB 7 11 29.96 1015 10 16 0.00 0.00
1:56 am 01:56 Partly Cloudy 32 0 23 -5 69 69 VRB 7 11 29.95 1014 10 16 0.00 0.00
2:56 am 02:56 Partly Cloudy 34 1 23 -5 65 65 VRB 7 11 29.93 1014 10 16 0.00 0.00
3:56 am 03:56 Partly Cloudy 36 2 25 -4 65 65 WNW 3 6 29.92 1013 10 16 0.00 0.00
4:56 am 04:56 Partly Cloudy 34 1 25 -4 70 70 W 7 11 29.91 1013 10 16 0.00 0.00
5:56 am 05:56 Partly Cloudy 34 1 27 -3 75 75 W 7 11 29.91 1013 10 16 0.00 0.00
6:56 am 06:56 Partly Cloudy 34 1 27 -3 75 75 W 7 11 29.89 1012 10 16 0.00 0.00
7:56 am 07:56 Mostly Sunny 32 0 27 -3 80 80 WNW 3 6 29.90 1013 10 16 0.00 0.00
8:56 am 08:56 Sunny 36 2 27 -3 70 70 Calm 29.91 1013 10 16 0.00 0.00
9:56 am 09:56 Sunny 41 5 28 -2 61 61 WSW 5 7 29.91 1013 10 16 0.00 0.00
11:56 am 11:56 Sunny 54 12 28 -2 38 38 WNW 14 22 29.86 1011 10 16 0.00 0.00
12:56 pm 12:56 Sunny 55 13 28 -2 36 36 NW 18 30 29.85 1011 10 16 0.00 0.00
1:56 pm 13:56 Sunny 55 13 30 -1 38 38 WNW 17 28 29.86 1011 10 16 0.00 0.00
2:56 pm 14:56 Sunny 55 13 30 -1 38 38 WNW 16 26 29.86 1011 10 16 0.00 0.00
3:56 pm 15:56 Sunny 52 11 30 -1 44 44 WNW 10 17 29.87 1012 10 16 0.00 0.00
4:56 pm 16:56 Clear 50 10 30 -1 47 47 WNW 14 22 29.89 1012 10 16 0.00 0.00
5:56 pm 17:56 Clear 46 8 30 -1 53 53 WNW 10 17 29.91 1013 10 16 0.00 0.00
6:56 pm 18:56 Clear 45 7 30 -1 57 57 WNW 9 15 29.91 1013 10 16 0.00 0.00
7:56 pm 19:56 Clear 43 6 30 -1 61 61 WNW 9 15 29.93 1013 10 16 0.00 0.00
8:56 pm 20:56 Clear 39 4 28 -2 65 65 VRB 3 6 29.93 1014 10 16 0.00 0.00
9:56 pm 21:56 Clear 37 3 28 -2 70 70 NW 7 11 29.93 1013 10 16 0.00 0.00
10:56 pm 22:56 Clear 37 3 28 -2 70 70 WNW 7 11 29.92 1013 10 16 0.00 0.00
11:56 pm 23:56 Clear 34 1 28 -2 81 81 W 3 6 29.92 1013 10 16 0.00 0.00

Powered by AerisWeather